Year,Month,Day,Hour,Minute,Value (Times are PST for temperature in C)
2017,06,24,00,00,14.10
2017,06,24,00,01,14.10
2017,06,24,00,02,14.10
2017,06,24,00,03,14.10
2017,06,24,00,04,14.10
2017,06,24,00,05,14.10
2017,06,24,00,06,14.10
2017,06,24,00,07,14.10
2017,06,24,00,08,14.10
2017,06,24,00,09,14.10
2017,06,24,00,10,14.10
2017,06,24,00,11,14.10
2017,06,24,00,12,14.10
2017,06,24,00,13,14.10
2017,06,24,00,14,14.10
2017,06,24,00,15,14.10
2017,06,24,00,16,14.10
2017,06,24,00,17,14.10
2017,06,24,00,18,14.10
2017,06,24,00,19,14.00
2017,06,24,00,20,14.00
2017,06,24,00,21,14.00
2017,06,24,00,22,13.90
2017,06,24,00,23,13.90
2017,06,24,00,24,13.90
2017,06,24,00,25,13.90
2017,06,24,00,26,13.90
2017,06,24,00,27,13.80
2017,06,24,00,28,13.80
2017,06,24,00,29,13.80
2017,06,24,00,30,13.80
2017,06,24,00,31,13.80
2017,06,24,00,32,13.80
2017,06,24,00,33,13.70
2017,06,24,00,34,13.70
2017,06,24,00,35,13.70
2017,06,24,00,36,13.70
2017,06,24,00,37,13.70
2017,06,24,00,38,13.70
2017,06,24,00,39,13.70
2017,06,24,00,40,13.70
2017,06,24,00,41,13.70
2017,06,24,00,42,13.70
2017,06,24,00,43,13.70
2017,06,24,00,44,13.70
2017,06,24,00,45,13.70
2017,06,24,00,46,13.70
2017,06,24,00,47,13.70
2017,06,24,00,48,13.70
2017,06,24,00,49,13.70
2017,06,24,00,50,13.70
2017,06,24,00,51,13.70
2017,06,24,00,52,13.70
2017,06,24,00,53,13.70
2017,06,24,00,54,13.70
2017,06,24,00,55,13.60
2017,06,24,00,56,13.70
2017,06,24,00,57,13.70
2017,06,24,00,58,13.70
2017,06,24,00,59,13.70
2017,06,24,01,00,13.60
2017,06,24,01,01,13.60
2017,06,24,01,02,13.60
2017,06,24,01,03,13.70
2017,06,24,01,04,13.70
2017,06,24,01,05,13.70
2017,06,24,01,06,13.70
2017,06,24,01,07,13.70
2017,06,24,01,08,13.70
2017,06,24,01,09,13.70
2017,06,24,01,10,13.70
2017,06,24,01,11,13.80
2017,06,24,01,12,13.80
2017,06,24,01,13,13.80
2017,06,24,01,14,13.80
2017,06,24,01,15,13.80
2017,06,24,01,16,13.80
2017,06,24,01,17,13.80
2017,06,24,01,18,13.80
2017,06,24,01,19,13.90
2017,06,24,01,20,13.90
2017,06,24,01,21,14.00
2017,06,24,01,22,14.00
2017,06,24,01,23,14.00
2017,06,24,01,24,14.10
2017,06,24,01,25,14.10
2017,06,24,01,26,14.10
2017,06,24,01,27,14.20
2017,06,24,01,28,14.20
2017,06,24,01,29,14.20
2017,06,24,01,30,14.20
2017,06,24,01,31,14.20
2017,06,24,01,32,14.30
2017,06,24,01,33,14.30
2017,06,24,01,34,14.30
2017,06,24,01,35,14.30
2017,06,24,01,36,14.30
2017,06,24,01,37,14.30
2017,06,24,01,38,14.30
2017,06,24,01,39,14.30
2017,06,24,01,40,14.30
2017,06,24,01,41,14.30
2017,06,24,01,42,14.20
2017,06,24,01,43,14.20
2017,06,24,01,44,14.20
2017,06,24,01,45,14.10
2017,06,24,01,46,14.10
2017,06,24,01,47,14.10
2017,06,24,01,48,14.00
2017,06,24,01,49,14.00
2017,06,24,01,50,14.00
2017,06,24,01,51,14.00
2017,06,24,01,52,14.10
2017,06,24,01,53,14.10
2017,06,24,01,54,14.00
2017,06,24,01,55,14.00
2017,06,24,01,56,14.00
2017,06,24,01,57,14.00
2017,06,24,01,58,14.00
2017,06,24,01,59,14.00
2017,06,24,02,00,13.90
2017,06,24,02,01,13.90
2017,06,24,02,02,13.90
2017,06,24,02,03,13.90
2017,06,24,02,04,13.90
2017,06,24,02,05,13.90
2017,06,24,02,06,13.90
2017,06,24,02,07,13.90
2017,06,24,02,08,14.00
2017,06,24,02,09,14.00
2017,06,24,02,10,14.10
2017,06,24,02,11,14.20
2017,06,24,02,12,14.20
2017,06,24,02,13,14.20
2017,06,24,02,14,14.20
2017,06,24,02,15,14.20
2017,06,24,02,16,14.20
2017,06,24,02,17,14.20
2017,06,24,02,18,14.20
2017,06,24,02,19,14.20
2017,06,24,02,20,14.20
2017,06,24,02,21,14.20
2017,06,24,02,22,14.20
2017,06,24,02,23,14.20
2017,06,24,02,24,14.20
2017,06,24,02,25,14.20
2017,06,24,02,26,14.20
2017,06,24,02,27,14.20
2017,06,24,02,28,14.20
2017,06,24,02,29,14.30
2017,06,24,02,30,14.30
2017,06,24,02,31,14.20
2017,06,24,02,32,14.20
2017,06,24,02,33,14.20
2017,06,24,02,34,14.20
2017,06,24,02,35,14.20
2017,06,24,02,36,14.20
2017,06,24,02,37,14.10
2017,06,24,02,38,14.10
2017,06,24,02,39,14.10
2017,06,24,02,40,14.10
2017,06,24,02,41,14.10
2017,06,24,02,42,14.10
2017,06,24,02,43,14.10
2017,06,24,02,44,14.10
2017,06,24,02,45,14.10
2017,06,24,02,46,14.10
2017,06,24,02,47,14.10
2017,06,24,02,48,14.20
2017,06,24,02,49,14.20
2017,06,24,02,50,14.20
2017,06,24,02,51,14.30
2017,06,24,02,52,14.30
2017,06,24,02,53,14.30
2017,06,24,02,54,14.30
2017,06,24,02,55,14.30
2017,06,24,02,56,14.30
2017,06,24,02,57,14.40
2017,06,24,02,58,14.40
2017,06,24,02,59,14.40
2017,06,24,03,00,14.40
2017,06,24,03,01,14.40
2017,06,24,03,02,14.40
2017,06,24,03,03,14.50
2017,06,24,03,04,14.50
2017,06,24,03,05,14.60
2017,06,24,03,06,14.60
2017,06,24,03,07,14.60
2017,06,24,03,08,14.60
2017,06,24,03,09,14.70
2017,06,24,03,10,14.80
2017,06,24,03,11,14.80
2017,06,24,03,12,14.90
2017,06,24,03,13,14.90
2017,06,24,03,14,15.00
2017,06,24,03,15,15.00
2017,06,24,03,16,15.00
2017,06,24,03,17,15.00
2017,06,24,03,18,15.00
2017,06,24,03,19,15.00
2017,06,24,03,20,15.00
2017,06,24,03,21,15.00
2017,06,24,03,22,15.10
2017,06,24,03,23,15.20
2017,06,24,03,24,15.20
2017,06,24,03,25,15.20
2017,06,24,03,26,15.30
2017,06,24,03,27,15.30
2017,06,24,03,28,15.30
2017,06,24,03,29,15.30
2017,06,24,03,30,15.30
2017,06,24,03,31,15.30
2017,06,24,03,32,15.30
2017,06,24,03,33,15.30
2017,06,24,03,34,15.30
2017,06,24,03,35,15.30
2017,06,24,03,36,15.30
2017,06,24,03,37,15.40
2017,06,24,03,38,15.40
2017,06,24,03,39,15.40
2017,06,24,03,40,15.50
2017,06,24,03,41,15.50
2017,06,24,03,42,15.50
2017,06,24,03,43,15.60
2017,06,24,03,44,15.60
2017,06,24,03,45,15.60
2017,06,24,03,46,15.60
2017,06,24,03,47,15.60
2017,06,24,03,48,15.70
2017,06,24,03,49,15.70
2017,06,24,03,50,15.70
2017,06,24,03,51,15.70
2017,06,24,03,52,15.70
2017,06,24,03,53,15.70
2017,06,24,03,54,15.60
2017,06,24,03,55,15.60
2017,06,24,03,56,15.60
2017,06,24,03,57,15.60
2017,06,24,03,58,15.50
2017,06,24,03,59,15.50
2017,06,24,04,00,15.40
2017,06,24,04,01,15.40
2017,06,24,04,02,15.40
2017,06,24,04,03,15.30
2017,06,24,04,04,15.30
2017,06,24,04,05,15.30
2017,06,24,04,06,15.30
2017,06,24,04,07,15.30
2017,06,24,04,08,15.30
2017,06,24,04,09,15.30
2017,06,24,04,10,15.30
2017,06,24,04,11,15.40
2017,06,24,04,12,15.40
2017,06,24,04,13,15.40
2017,06,24,04,14,15.40
2017,06,24,04,15,15.40
2017,06,24,04,16,15.40
2017,06,24,04,17,15.40
2017,06,24,04,18,15.40
2017,06,24,04,19,15.40
2017,06,24,04,20,15.40
2017,06,24,04,21,15.50
2017,06,24,04,22,15.50
2017,06,24,04,23,15.50
2017,06,24,04,24,15.60
2017,06,24,04,25,15.70
2017,06,24,04,26,15.70
2017,06,24,04,27,15.80
2017,06,24,04,28,15.80
2017,06,24,04,29,16.00
2017,06,24,04,30,16.00
2017,06,24,04,31,16.10
2017,06,24,04,32,16.10
2017,06,24,04,33,16.10
2017,06,24,04,34,16.10
2017,06,24,04,35,16.10
2017,06,24,04,36,16.10
2017,06,24,04,37,16.10
2017,06,24,04,38,16.10
2017,06,24,04,39,16.10
2017,06,24,04,40,16.20
2017,06,24,04,41,16.30
2017,06,24,04,42,16.50
2017,06,24,04,43,16.70
2017,06,24,04,44,16.90
2017,06,24,04,45,17.00
2017,06,24,04,46,17.10
2017,06,24,04,47,17.20
2017,06,24,04,48,17.20
2017,06,24,04,49,17.30
2017,06,24,04,50,17.40
2017,06,24,04,51,17.40
2017,06,24,04,52,17.50
2017,06,24,04,53,17.50
2017,06,24,04,54,17.40
2017,06,24,04,55,17.50
2017,06,24,04,56,17.60
2017,06,24,04,57,17.60
2017,06,24,04,58,17.60
2017,06,24,04,59,17.70
2017,06,24,05,00,17.70
2017,06,24,05,01,17.60
2017,06,24,05,02,17.60
2017,06,24,05,03,17.60
2017,06,24,05,04,17.60
2017,06,24,05,05,17.60
2017,06,24,05,06,17.60
2017,06,24,05,07,17.60
2017,06,24,05,08,17.60
2017,06,24,05,09,17.60
2017,06,24,05,10,17.50
2017,06,24,05,11,17.50
2017,06,24,05,12,17.40
2017,06,24,05,13,17.40
2017,06,24,05,14,17.30
2017,06,24,05,15,17.30
2017,06,24,05,16,17.30
2017,06,24,05,17,17.20
2017,06,24,05,18,17.20
2017,06,24,05,19,17.20
2017,06,24,05,20,17.10
2017,06,24,05,21,17.10
2017,06,24,05,22,17.10
2017,06,24,05,23,17.10
2017,06,24,05,24,17.10
2017,06,24,05,25,17.10
2017,06,24,05,26,17.10
2017,06,24,05,27,17.10
2017,06,24,05,28,17.10
2017,06,24,05,29,17.10
2017,06,24,05,30,17.20
2017,06,24,05,31,17.20
2017,06,24,05,32,17.30
2017,06,24,05,33,17.40
2017,06,24,05,34,17.50
2017,06,24,05,35,17.60
2017,06,24,05,36,17.80
2017,06,24,05,37,17.80
2017,06,24,05,38,17.90
2017,06,24,05,39,17.90
2017,06,24,05,40,17.90
2017,06,24,05,41,18.00
2017,06,24,05,42,18.00
2017,06,24,05,43,18.00
2017,06,24,05,44,17.90
2017,06,24,05,45,17.90
2017,06,24,05,46,17.90
2017,06,24,05,47,17.90
2017,06,24,05,48,17.90
2017,06,24,05,49,17.90
2017,06,24,05,50,17.90
2017,06,24,05,51,18.00
2017,06,24,05,52,18.00
2017,06,24,05,53,17.90
2017,06,24,05,54,17.90
2017,06,24,05,55,17.90
2017,06,24,05,56,17.90
2017,06,24,05,57,17.80
2017,06,24,05,58,17.80
2017,06,24,05,59,17.80
2017,06,24,06,00,17.70
2017,06,24,06,01,17.70
2017,06,24,06,02,17.70
2017,06,24,06,03,17.70
2017,06,24,06,04,17.70
2017,06,24,06,05,17.70
2017,06,24,06,06,17.80
2017,06,24,06,07,17.80
2017,06,24,06,08,17.80
2017,06,24,06,09,17.80
2017,06,24,06,10,17.80
2017,06,24,06,11,17.80
2017,06,24,06,12,17.70
2017,06,24,06,13,17.70
2017,06,24,06,14,17.70
2017,06,24,06,15,17.60
2017,06,24,06,16,17.60
2017,06,24,06,17,17.60
2017,06,24,06,18,17.50
2017,06,24,06,19,17.40
2017,06,24,06,20,17.40
2017,06,24,06,21,17.30
2017,06,24,06,22,17.30
2017,06,24,06,23,17.20
2017,06,24,06,24,17.20
2017,06,24,06,25,17.10
2017,06,24,06,26,17.10
2017,06,24,06,27,17.10
2017,06,24,06,28,17.10
2017,06,24,06,29,17.10
2017,06,24,06,30,17.20
2017,06,24,06,31,17.20
2017,06,24,06,32,17.20
2017,06,24,06,33,17.30
2017,06,24,06,34,17.40
2017,06,24,06,35,17.50
2017,06,24,06,36,17.60
2017,06,24,06,37,17.70
2017,06,24,06,38,17.70
2017,06,24,06,39,17.80
2017,06,24,06,40,17.90
2017,06,24,06,41,17.90
2017,06,24,06,42,17.90
2017,06,24,06,43,18.00
2017,06,24,06,44,18.10
2017,06,24,06,45,18.10
2017,06,24,06,46,18.20
2017,06,24,06,47,18.30
2017,06,24,06,48,18.30
2017,06,24,06,49,18.40
2017,06,24,06,50,18.50
2017,06,24,06,51,18.50
2017,06,24,06,52,18.60
2017,06,24,06,53,18.70
2017,06,24,06,54,18.70
2017,06,24,06,55,18.80
2017,06,24,06,56,18.90
2017,06,24,06,57,18.90
2017,06,24,06,58,19.00
2017,06,24,06,59,19.10
2017,06,24,07,00,19.20
2017,06,24,07,01,19.30
2017,06,24,07,02,19.30
2017,06,24,07,03,19.40
2017,06,24,07,04,19.50
2017,06,24,07,05,19.50
2017,06,24,07,06,19.60
2017,06,24,07,07,19.70
2017,06,24,07,08,19.70
2017,06,24,07,09,19.80
2017,06,24,07,10,19.90
2017,06,24,07,11,20.00
2017,06,24,07,12,20.00
2017,06,24,07,13,20.00
2017,06,24,07,14,20.10
2017,06,24,07,15,20.20
2017,06,24,07,16,20.30
2017,06,24,07,17,20.30
2017,06,24,07,18,20.40
2017,06,24,07,19,20.50
2017,06,24,07,20,20.60
2017,06,24,07,21,20.70
2017,06,24,07,22,20.70
2017,06,24,07,23,20.80
2017,06,24,07,24,20.80
2017,06,24,07,25,20.90
2017,06,24,07,26,20.90
2017,06,24,07,27,21.00
2017,06,24,07,28,21.00
2017,06,24,07,29,21.10
2017,06,24,07,30,21.20
2017,06,24,07,31,21.30
2017,06,24,07,32,21.30
2017,06,24,07,33,21.40
2017,06,24,07,34,21.50
2017,06,24,07,35,21.50
2017,06,24,07,36,21.60
2017,06,24,07,37,21.70
2017,06,24,07,38,21.80
2017,06,24,07,39,21.90
2017,06,24,07,40,21.90
2017,06,24,07,41,22.00
2017,06,24,07,42,22.00
2017,06,24,07,43,22.10
2017,06,24,07,44,22.10
2017,06,24,07,45,22.20
2017,06,24,07,46,22.20
2017,06,24,07,47,22.10
2017,06,24,07,48,22.20
2017,06,24,07,49,22.10
2017,06,24,07,50,22.10
2017,06,24,07,51,22.10
2017,06,24,07,52,22.10
2017,06,24,07,53,22.20
2017,06,24,07,54,22.30
2017,06,24,07,55,22.30
2017,06,24,07,56,22.20
2017,06,24,07,57,22.30
2017,06,24,07,58,22.20
2017,06,24,07,59,22.20
2017,06,24,08,00,22.30
2017,06,24,08,01,22.30
2017,06,24,08,02,22.40
2017,06,24,08,03,22.40
2017,06,24,08,04,22.40
2017,06,24,08,05,22.50
2017,06,24,08,06,22.50
2017,06,24,08,07,22.60
2017,06,24,08,08,22.70
2017,06,24,08,09,22.70
2017,06,24,08,10,22.80
2017,06,24,08,11,22.90
2017,06,24,08,12,23.00
2017,06,24,08,13,23.10
2017,06,24,08,14,23.20
2017,06,24,08,15,23.10
2017,06,24,08,16,23.20
2017,06,24,08,17,23.20
2017,06,24,08,18,23.10
2017,06,24,08,19,23.10
2017,06,24,08,20,23.20
2017,06,24,08,21,23.20
2017,06,24,08,22,23.20
2017,06,24,08,23,23.20
2017,06,24,08,24,23.30
2017,06,24,08,25,23.40
2017,06,24,08,26,23.40
2017,06,24,08,27,23.50
2017,06,24,08,28,23.60
2017,06,24,08,29,23.60
2017,06,24,08,30,23.70
2017,06,24,08,31,23.80
2017,06,24,08,32,23.80
2017,06,24,08,33,23.80
2017,06,24,08,34,23.70
2017,06,24,08,35,23.70
2017,06,24,08,36,23.80
2017,06,24,08,37,23.80
2017,06,24,08,38,23.80
2017,06,24,08,39,23.80
2017,06,24,08,40,23.80
2017,06,24,08,41,23.90
2017,06,24,08,42,24.00
2017,06,24,08,43,24.10
2017,06,24,08,44,24.00
2017,06,24,08,45,23.90
2017,06,24,08,46,23.90
2017,06,24,08,47,23.90
2017,06,24,08,48,24.00
2017,06,24,08,49,24.00
2017,06,24,08,50,24.10
2017,06,24,08,51,24.10
2017,06,24,08,52,24.10
2017,06,24,08,53,24.20
2017,06,24,08,54,24.30
2017,06,24,08,55,24.40
2017,06,24,08,56,24.50
2017,06,24,08,57,24.60
2017,06,24,08,58,24.70
2017,06,24,08,59,24.80
2017,06,24,09,00,24.70
2017,06,24,09,01,24.70
2017,06,24,09,02,24.70
2017,06,24,09,03,24.70
2017,06,24,09,04,24.80
2017,06,24,09,05,24.90
2017,06,24,09,06,24.90
2017,06,24,09,07,25.00
2017,06,24,09,08,24.90
2017,06,24,09,09,24.90
2017,06,24,09,10,24.80
2017,06,24,09,11,24.70
2017,06,24,09,12,24.60
2017,06,24,09,13,24.50
2017,06,24,09,14,24.40
2017,06,24,09,15,24.40
2017,06,24,09,16,24.40
2017,06,24,09,17,24.40
2017,06,24,09,18,24.40
2017,06,24,09,19,24.30
2017,06,24,09,20,24.30
2017,06,24,09,21,24.40
2017,06,24,09,22,24.40
2017,06,24,09,23,24.40
2017,06,24,09,24,24.50
2017,06,24,09,25,24.50
2017,06,24,09,26,24.60
2017,06,24,09,27,24.60
2017,06,24,09,28,24.70
2017,06,24,09,29,24.70
2017,06,24,09,30,24.80
2017,06,24,09,31,24.80
2017,06,24,09,32,24.80
2017,06,24,09,33,24.80
2017,06,24,09,34,24.90
2017,06,24,09,35,24.90
2017,06,24,09,36,24.90
2017,06,24,09,37,24.90
2017,06,24,09,38,25.00
2017,06,24,09,39,25.00
2017,06,24,09,40,25.00
2017,06,24,09,41,25.00
2017,06,24,09,42,24.90
2017,06,24,09,43,24.90
2017,06,24,09,44,24.80
2017,06,24,09,45,24.80
2017,06,24,09,46,24.80
2017,06,24,09,47,24.90
2017,06,24,09,48,24.90
2017,06,24,09,49,24.80
2017,06,24,09,50,24.90
2017,06,24,09,51,24.90
2017,06,24,09,52,25.00
2017,06,24,09,53,25.10
2017,06,24,09,54,25.10
2017,06,24,09,55,25.10
2017,06,24,09,56,25.20
2017,06,24,09,57,25.10
2017,06,24,09,58,25.10
2017,06,24,09,59,25.10
2017,06,24,10,00,25.10
2017,06,24,10,01,25.10
2017,06,24,10,02,25.00
2017,06,24,10,03,24.90
2017,06,24,10,04,24.80
2017,06,24,10,05,24.80
2017,06,24,10,06,24.70
2017,06,24,10,07,24.70
2017,06,24,10,08,24.80
2017,06,24,10,09,24.80
2017,06,24,10,10,24.80
2017,06,24,10,11,24.80
2017,06,24,10,12,24.80
2017,06,24,10,13,24.80
2017,06,24,10,14,24.80
2017,06,24,10,15,24.90
2017,06,24,10,16,24.90
2017,06,24,10,17,24.90
2017,06,24,10,18,24.90
2017,06,24,10,19,24.80
2017,06,24,10,20,24.90
2017,06,24,10,21,24.90
2017,06,24,10,22,24.90
2017,06,24,10,23,24.90
2017,06,24,10,24,24.90
2017,06,24,10,25,25.00
2017,06,24,10,26,25.10
2017,06,24,10,27,25.10
2017,06,24,10,28,25.10
2017,06,24,10,29,25.00
2017,06,24,10,30,25.00
2017,06,24,10,31,24.90
2017,06,24,10,32,25.00
2017,06,24,10,33,25.00
2017,06,24,10,34,25.10
2017,06,24,10,35,25.20
2017,06,24,10,36,25.20
2017,06,24,10,37,25.20
2017,06,24,10,38,25.20
2017,06,24,10,39,25.30
2017,06,24,10,40,25.30
2017,06,24,10,41,25.20
2017,06,24,10,42,25.20
2017,06,24,10,43,25.20
2017,06,24,10,44,25.20
2017,06,24,10,45,25.10
2017,06,24,10,46,25.10
2017,06,24,10,47,25.10
2017,06,24,10,48,25.10
2017,06,24,10,49,25.10
2017,06,24,10,50,25.10
2017,06,24,10,51,25.10
2017,06,24,10,52,25.10
2017,06,24,10,53,25.10
2017,06,24,10,54,25.10
2017,06,24,10,55,25.10
2017,06,24,10,56,25.10
2017,06,24,10,57,25.10
2017,06,24,10,58,25.00
2017,06,24,10,59,25.00
2017,06,24,11,00,25.00
2017,06,24,11,01,25.10
2017,06,24,11,02,25.10
2017,06,24,11,03,25.20
2017,06,24,11,04,25.30
2017,06,24,11,05,25.30
2017,06,24,11,06,25.30
2017,06,24,11,07,25.40
2017,06,24,11,08,25.40
2017,06,24,11,09,25.50
2017,06,24,11,10,25.60
2017,06,24,11,11,25.80
2017,06,24,11,12,25.80
2017,06,24,11,13,25.80
2017,06,24,11,14,25.90
2017,06,24,11,15,25.90
2017,06,24,11,16,25.90
2017,06,24,11,17,25.90
2017,06,24,11,18,25.90
2017,06,24,11,19,25.90
2017,06,24,11,20,25.90
2017,06,24,11,21,25.90
2017,06,24,11,22,25.90
2017,06,24,11,23,25.90
2017,06,24,11,24,25.90
2017,06,24,11,25,26.00
2017,06,24,11,26,26.00
2017,06,24,11,27,26.10
2017,06,24,11,28,26.20
2017,06,24,11,29,26.30
2017,06,24,11,30,26.40
2017,06,24,11,31,26.40
2017,06,24,11,32,26.40
2017,06,24,11,33,26.40
2017,06,24,11,34,26.30
2017,06,24,11,35,26.30
2017,06,24,11,36,26.20
2017,06,24,11,37,26.20
2017,06,24,11,38,26.20
2017,06,24,11,39,26.10
2017,06,24,11,40,26.20
2017,06,24,11,41,26.10
2017,06,24,11,42,26.10
2017,06,24,11,43,26.10
2017,06,24,11,44,26.10
2017,06,24,11,45,26.10
2017,06,24,11,46,26.10
2017,06,24,11,47,26.20
2017,06,24,11,48,26.20
2017,06,24,11,49,26.20
2017,06,24,11,50,26.20
2017,06,24,11,51,26.20
2017,06,24,11,52,26.20
2017,06,24,11,53,26.20
2017,06,24,11,54,26.10
2017,06,24,11,55,26.10
2017,06,24,11,56,26.00
2017,06,24,11,57,26.00
2017,06,24,11,58,26.00
2017,06,24,11,59,26.00
2017,06,24,12,00,26.10
2017,06,24,12,01,26.20
2017,06,24,12,02,26.30
2017,06,24,12,03,26.40
2017,06,24,12,04,26.60
2017,06,24,12,05,26.60
2017,06,24,12,06,26.70
2017,06,24,12,07,26.70
2017,06,24,12,08,26.70
2017,06,24,12,09,26.70
2017,06,24,12,10,26.70
2017,06,24,12,11,26.60
2017,06,24,12,12,26.60
2017,06,24,12,13,26.60
2017,06,24,12,14,26.60
2017,06,24,12,15,26.50
2017,06,24,12,16,26.40
2017,06,24,12,17,26.40
2017,06,24,12,18,26.40
2017,06,24,12,19,26.40
2017,06,24,12,20,26.40
2017,06,24,12,21,26.30
2017,06,24,12,22,26.30
2017,06,24,12,23,26.30
2017,06,24,12,24,26.20
2017,06,24,12,25,26.20
2017,06,24,12,26,26.20
2017,06,24,12,27,26.20
2017,06,24,12,28,26.20
2017,06,24,12,29,26.30
2017,06,24,12,30,26.40
2017,06,24,12,31,26.40
2017,06,24,12,32,26.40
2017,06,24,12,33,26.30
2017,06,24,12,34,26.30
2017,06,24,12,35,26.30
2017,06,24,12,36,26.30
2017,06,24,12,37,26.40
2017,06,24,12,38,26.40
2017,06,24,12,39,26.40
2017,06,24,12,40,26.40
2017,06,24,12,41,26.40
2017,06,24,12,42,26.30
2017,06,24,12,43,26.30
2017,06,24,12,44,26.40
2017,06,24,12,45,26.30
2017,06,24,12,46,26.30
2017,06,24,12,47,26.30
2017,06,24,12,48,26.40
2017,06,24,12,49,26.50
2017,06,24,12,50,26.50
2017,06,24,12,51,26.60
2017,06,24,12,52,26.60
2017,06,24,12,53,26.70
2017,06,24,12,54,26.70
2017,06,24,12,55,26.70
2017,06,24,12,56,26.70
2017,06,24,12,57,26.70
2017,06,24,12,58,26.70
2017,06,24,12,59,26.70
2017,06,24,13,00,26.80
2017,06,24,13,01,26.80
2017,06,24,13,02,26.90
2017,06,24,13,03,26.90
2017,06,24,13,04,26.90
2017,06,24,13,05,26.80
2017,06,24,13,06,26.80
2017,06,24,13,07,26.70
2017,06,24,13,08,26.70
2017,06,24,13,09,26.70
2017,06,24,13,10,26.60
2017,06,24,13,11,26.60
2017,06,24,13,12,26.60
2017,06,24,13,13,26.70
2017,06,24,13,14,26.70
2017,06,24,13,15,26.80
2017,06,24,13,16,26.80
2017,06,24,13,17,26.80
2017,06,24,13,18,26.90
2017,06,24,13,19,26.90
2017,06,24,13,20,27.10
2017,06,24,13,21,27.20
2017,06,24,13,22,27.20
2017,06,24,13,23,27.20
2017,06,24,13,24,27.20
2017,06,24,13,25,27.20
2017,06,24,13,26,27.20
2017,06,24,13,27,27.20
2017,06,24,13,28,27.20
2017,06,24,13,29,27.20
2017,06,24,13,30,27.20
2017,06,24,13,31,27.30
2017,06,24,13,32,27.40
2017,06,24,13,33,27.40
2017,06,24,13,34,27.50
2017,06,24,13,35,27.50
2017,06,24,13,36,27.50
2017,06,24,13,37,27.50
2017,06,24,13,38,27.50
2017,06,24,13,39,27.50
2017,06,24,13,40,27.50
2017,06,24,13,41,27.60
2017,06,24,13,42,27.50
2017,06,24,13,43,27.60
2017,06,24,13,44,27.60
2017,06,24,13,45,27.60
2017,06,24,13,46,27.70
2017,06,24,13,47,27.70
2017,06,24,13,48,27.80
2017,06,24,13,49,27.80
2017,06,24,13,50,27.90
2017,06,24,13,51,27.90
2017,06,24,13,52,28.00
2017,06,24,13,53,28.00
2017,06,24,13,54,28.00
2017,06,24,13,55,28.10
2017,06,24,13,56,28.10
2017,06,24,13,57,28.10
2017,06,24,13,58,28.10
2017,06,24,13,59,28.10
2017,06,24,14,00,28.10
2017,06,24,14,01,28.10
2017,06,24,14,02,28.10
2017,06,24,14,03,28.00
2017,06,24,14,04,28.10
2017,06,24,14,05,28.10
2017,06,24,14,06,28.10
2017,06,24,14,07,28.00
2017,06,24,14,08,28.00
2017,06,24,14,09,28.00
2017,06,24,14,10,28.00
2017,06,24,14,11,28.10
2017,06,24,14,12,28.20
2017,06,24,14,13,28.30
2017,06,24,14,14,28.30
2017,06,24,14,15,28.40
2017,06,24,14,16,28.40
2017,06,24,14,17,28.40
2017,06,24,14,18,28.50
2017,06,24,14,19,28.50
2017,06,24,14,20,28.50
2017,06,24,14,21,28.50
2017,06,24,14,22,28.50
2017,06,24,14,23,28.40
2017,06,24,14,24,28.40
2017,06,24,14,25,28.40
2017,06,24,14,26,28.40
2017,06,24,14,27,28.40
2017,06,24,14,28,28.40
2017,06,24,14,29,28.50
2017,06,24,14,30,28.50
2017,06,24,14,31,28.50
2017,06,24,14,32,28.50
2017,06,24,14,33,28.50
2017,06,24,14,34,28.50
2017,06,24,14,35,28.50
2017,06,24,14,36,28.50
2017,06,24,14,37,28.60
2017,06,24,14,38,28.60
2017,06,24,14,39,28.60
2017,06,24,14,40,28.60
2017,06,24,14,41,28.60
2017,06,24,14,42,28.70
2017,06,24,14,43,28.70
2017,06,24,14,44,28.70
2017,06,24,14,45,28.70
2017,06,24,14,46,28.70
2017,06,24,14,47,28.70
2017,06,24,14,48,28.80
2017,06,24,14,49,28.80
2017,06,24,14,50,28.80
2017,06,24,14,51,28.90
2017,06,24,14,52,28.90
2017,06,24,14,53,28.90
2017,06,24,14,54,28.80
2017,06,24,14,55,28.90
2017,06,24,14,56,28.90
2017,06,24,14,57,28.90
2017,06,24,14,58,29.00
2017,06,24,14,59,29.10
2017,06,24,15,00,29.00
2017,06,24,15,01,29.00
2017,06,24,15,02,28.90
2017,06,24,15,03,29.00
2017,06,24,15,04,29.00
2017,06,24,15,05,29.10
2017,06,24,15,06,29.10
2017,06,24,15,07,29.00
2017,06,24,15,08,28.90
2017,06,24,15,09,28.90
2017,06,24,15,10,28.90
2017,06,24,15,11,28.90
2017,06,24,15,12,29.00
2017,06,24,15,13,29.00
2017,06,24,15,14,29.10
2017,06,24,15,15,29.10
2017,06,24,15,16,29.20
2017,06,24,15,17,29.20
2017,06,24,15,18,29.20
2017,06,24,15,19,29.20
2017,06,24,15,20,29.20
2017,06,24,15,21,29.10
2017,06,24,15,22,29.10
2017,06,24,15,23,29.20
2017,06,24,15,24,29.20
2017,06,24,15,25,29.30
2017,06,24,15,26,29.30
2017,06,24,15,27,29.30
2017,06,24,15,28,29.40
2017,06,24,15,29,29.40
2017,06,24,15,30,29.50
2017,06,24,15,31,29.60
2017,06,24,15,32,29.60
2017,06,24,15,33,29.60
2017,06,24,15,34,29.60
2017,06,24,15,35,29.70
2017,06,24,15,36,29.70
2017,06,24,15,37,29.80
2017,06,24,15,38,29.80
2017,06,24,15,39,29.90
2017,06,24,15,40,29.90
2017,06,24,15,41,29.90
2017,06,24,15,42,29.90
2017,06,24,15,43,30.00
2017,06,24,15,44,30.00
2017,06,24,15,45,30.10
2017,06,24,15,46,30.10
2017,06,24,15,47,30.10
2017,06,24,15,48,30.20
2017,06,24,15,49,30.30
2017,06,24,15,50,30.30
2017,06,24,15,51,30.30
2017,06,24,15,52,30.30
2017,06,24,15,53,30.30
2017,06,24,15,54,30.30
2017,06,24,15,55,30.20
2017,06,24,15,56,30.30
2017,06,24,15,57,30.30
2017,06,24,15,58,30.20
2017,06,24,15,59,30.20
2017,06,24,16,00,30.30
2017,06,24,16,01,30.30
2017,06,24,16,02,30.30
2017,06,24,16,03,30.30
2017,06,24,16,04,30.30
2017,06,24,16,05,30.30
2017,06,24,16,06,30.20
2017,06,24,16,07,30.20
2017,06,24,16,08,30.10
2017,06,24,16,09,30.10
2017,06,24,16,10,30.00
2017,06,24,16,11,30.00
2017,06,24,16,12,29.90
2017,06,24,16,13,29.90
2017,06,24,16,14,29.90
2017,06,24,16,15,29.90
2017,06,24,16,16,30.00
2017,06,24,16,17,30.00
2017,06,24,16,18,30.10
2017,06,24,16,19,30.20
2017,06,24,16,20,30.30
2017,06,24,16,21,30.30
2017,06,24,16,22,30.30
2017,06,24,16,23,30.30
2017,06,24,16,24,30.20
2017,06,24,16,25,30.20
2017,06,24,16,26,30.10
2017,06,24,16,27,30.10
2017,06,24,16,28,30.10
2017,06,24,16,29,30.10
2017,06,24,16,30,30.10
2017,06,24,16,31,30.10
2017,06,24,16,32,30.10
2017,06,24,16,33,30.10
2017,06,24,16,34,30.00
2017,06,24,16,35,30.00
2017,06,24,16,36,30.00
2017,06,24,16,37,29.90
2017,06,24,16,38,29.90
2017,06,24,16,39,29.90
2017,06,24,16,40,30.00
2017,06,24,16,41,30.00
2017,06,24,16,42,30.00
2017,06,24,16,43,30.00
2017,06,24,16,44,30.00
2017,06,24,16,45,30.00
2017,06,24,16,46,30.00
2017,06,24,16,47,30.00
2017,06,24,16,48,30.00
2017,06,24,16,49,30.10
2017,06,24,16,50,30.10
2017,06,24,16,51,30.10
2017,06,24,16,52,30.10
2017,06,24,16,53,30.10
2017,06,24,16,54,30.20
2017,06,24,16,55,30.20
2017,06,24,16,56,30.30
2017,06,24,16,57,30.30
2017,06,24,16,58,30.30
2017,06,24,16,59,30.30
2017,06,24,17,00,30.30
2017,06,24,17,01,30.20
2017,06,24,17,02,30.20
2017,06,24,17,03,30.20
2017,06,24,17,04,30.10
2017,06,24,17,05,30.10
2017,06,24,17,06,30.10
2017,06,24,17,07,30.10
2017,06,24,17,08,30.10
2017,06,24,17,09,30.10
2017,06,24,17,10,30.10
2017,06,24,17,11,30.10
2017,06,24,17,12,30.20
2017,06,24,17,13,30.20
2017,06,24,17,14,30.20
2017,06,24,17,15,30.30
2017,06,24,17,16,30.30
2017,06,24,17,17,30.30
2017,06,24,17,18,30.30
2017,06,24,17,19,30.40